Waycross, GA

1:29 AM EDT on October 17, 2017 (GMT -0400)
Waycross-Ware County

Weather History for KAYS - August, 2013

Change the Weather History Date:

Saturday, August 10, 2013

  Actual Average (KAMG) Record (KAMG)
Temperature  
Mean Temperature 87 °F -  
Max Temperature 96 °F 90 °F 99 °F (2007)
Min Temperature 78 °F 71 °F 62 °F (1950)
Cooling Degree Days 22    
Growing Degree Days 37 (Base 50)    
Moisture  
Dew Point 76 °F    
Average Humidity 74    
Maximum Humidity 100    
Minimum Humidity 47    
Precipitation  
Precipitation 0.00 in - - ()
Sea Level Pressure  
Sea Level Pressure 30.10 in    
Wind  
Wind Speed 4 mph (South)    
Max Wind Speed 14 mph    
Max Gust Speed 17 mph    
Visibility 10 miles    
Events      
Averages and records for this station are not official NWS values.
T = Trace of Precipitation, MM = Missing Value Source: NWS Daily Summary

Daily Weather History Graph

Daily Weather History Graph

Search for Another Location

Airport or City:

Trip Planner

Search our weather history database for the weather conditions in past years. The results will help you decide how hot, cold, wet, or windy it might be!

Date:

Astronomy

Aug. 10, 2013 Rise Set
Actual Time 6:52 AM EDT 8:17 PM EDT
Civil Twilight 6:26 AM EDT 8:42 PM EDT
Nautical Twilight 5:55 AM EDT 9:13 PM EDT
Astronomical Twilight 5:23 AM EDT 9:45 PM EDT
Moon 10:18 AM EDT (8/10) 10:18 PM EDT (8/10)
Length of Visible Light 14h 16m
Length of Day
13h 24m
Waxing Crescent, 14% of the Moon is Illuminated
Aug 10
Waxing Crescent
Aug 14
First Quarter
Aug 20
Full
Aug 28
Last Quarter
Sep 5
New

Hourly Weather History & Observations

Time (EDT) Temp. Heat Index Dew Point Humidity Pressure Visibility Wind Dir Wind Speed Gust Speed Precip Events Conditions
12:15 AM 78.8 °F - 75.2 °F 89% 30.09 in 10.0 mi Calm Calm - N/A   Clear
12:35 AM 78.8 °F - 77.0 °F 94% 30.10 in 10.0 mi Calm Calm - N/A   Clear
12:55 AM 78.8 °F - 77.0 °F 94% 30.10 in 10.0 mi ESE 3.5 mph - N/A   Clear
1:15 AM 78.8 °F - 77.0 °F 94% 30.10 in 10.0 mi SSE 3.5 mph - N/A   Clear
1:35 AM 80.6 °F 87.1 °F 77.0 °F 89% 30.09 in 10.0 mi SE 5.8 mph - N/A   Clear
1:55 AM 80.6 °F 87.1 °F 77.0 °F 89% 30.09 in 10.0 mi SSE 4.6 mph - N/A   Clear
2:15 AM 80.6 °F 87.1 °F 77.0 °F 89% 30.09 in 10.0 mi SSE 6.9 mph - N/A   Clear
2:35 AM 80.6 °F 87.1 °F 77.0 °F 89% 30.09 in 10.0 mi SSE 5.8 mph - N/A   Clear
2:55 AM 80.6 °F 87.1 °F 77.0 °F 89% 30.09 in 10.0 mi SSE 5.8 mph - N/A   Clear
3:15 AM 78.8 °F - 77.0 °F 94% 30.09 in 10.0 mi SSE 3.5 mph - N/A   Unknown
3:35 AM 78.8 °F - 77.0 °F 94% 30.09 in 10.0 mi SSE 5.8 mph - N/A   Clear
3:55 AM 78.8 °F - 77.0 °F 94% 30.09 in 10.0 mi SE 3.5 mph - N/A   Clear
4:15 AM 78.8 °F - 77.0 °F 94% 30.08 in 10.0 mi SE 3.5 mph - N/A   Clear
4:35 AM 78.8 °F - 77.0 °F 94% 30.08 in 10.0 mi SSE 4.6 mph - N/A   Clear
4:55 AM 78.8 °F - 77.0 °F 94% 30.08 in 10.0 mi SSE 4.6 mph - N/A   Unknown
5:15 AM 78.8 °F - 77.0 °F 94% 30.08 in 10.0 mi South 4.6 mph - N/A   Clear
5:35 AM 78.8 °F - 77.0 °F 94% 30.09 in 10.0 mi SSE 4.6 mph - N/A   Clear
5:55 AM 78.8 °F - 77.0 °F 94% 30.09 in 10.0 mi SSE 3.5 mph - N/A   Clear
6:15 AM 78.8 °F - 77.0 °F 94% 30.09 in 10.0 mi SSE 3.5 mph - N/A   Clear
6:35 AM 78.8 °F - 77.0 °F 94% 30.09 in 10.0 mi Calm Calm - N/A   Clear
6:55 AM 78.8 °F - 77.0 °F 94% 30.10 in 10.0 mi Calm Calm - N/A   Clear
7:15 AM 78.8 °F - 77.0 °F 94% 30.11 in 10.0 mi Calm Calm - N/A   Clear
7:35 AM 78.8 °F - 77.0 °F 94% 30.11 in 1.0 mi Calm Calm - N/A   Clear
7:55 AM 78.8 °F - 78.8 °F 100% 30.12 in 10.0 mi Calm Calm - N/A   Clear
8:15 AM 80.6 °F 88.1 °F 78.8 °F 94% 30.12 in 10.0 mi South 4.6 mph - N/A   Clear
8:35 AM 82.4 °F 92.4 °F 78.8 °F 89% 30.12 in 10.0 mi South 5.8 mph - N/A   Clear
8:55 AM 82.4 °F 92.4 °F 78.8 °F 89% 30.12 in 10.0 mi SSW 8.1 mph - N/A   Clear
9:15 AM 84.2 °F 96.1 °F 78.8 °F 84% 30.13 in 10.0 mi South 5.8 mph - N/A   Clear
9:35 AM 84.2 °F 96.1 °F 78.8 °F 84% 30.12 in 10.0 mi South 8.1 mph - N/A   Clear
9:55 AM 86.0 °F 95.1 °F 75.2 °F 70% 30.13 in 10.0 mi South 5.8 mph - N/A   Clear
10:15 AM 87.8 °F 97.6 °F 75.2 °F 66% 30.13 in 10.0 mi Calm Calm - N/A   Clear
10:35 AM 87.8 °F 97.6 °F 75.2 °F 66% 30.13 in 10.0 mi SSW 4.6 mph - N/A   Clear
10:55 AM 89.6 °F 99.8 °F 75.2 °F 62% 30.14 in 10.0 mi South 4.6 mph - N/A   Clear
11:15 AM 89.6 °F 99.8 °F 75.2 °F 62% 30.14 in 10.0 mi South 5.8 mph - N/A   Clear
11:35 AM 91.4 °F 100.1 °F 73.4 °F 55% 30.14 in 10.0 mi SSE 8.1 mph - N/A   Clear
11:55 AM 91.4 °F 100.1 °F 73.4 °F 55% 30.14 in 10.0 mi South 6.9 mph - N/A   Clear
12:15 PM 91.4 °F 100.1 °F 73.4 °F 55% 30.14 in 10.0 mi SSE 6.9 mph - N/A   Clear
12:35 PM 91.4 °F 100.1 °F 73.4 °F 55% 30.14 in 10.0 mi SSW 6.9 mph - N/A   Clear
12:55 PM 93.2 °F 102.4 °F 73.4 °F 52% 30.14 in 10.0 mi SSW 10.4 mph - N/A   Clear
1:15 PM 93.2 °F 105.0 °F 75.2 °F 56% 30.14 in 10.0 mi SSW 5.8 mph - N/A   Clear
1:35 PM 93.2 °F 105.0 °F 75.2 °F 56% 30.13 in 10.0 mi SSE 10.4 mph - N/A   Clear
1:55 PM 93.2 °F 102.4 °F 73.4 °F 52% 30.13 in 10.0 mi Calm Calm - N/A   Clear
2:15 PM 93.2 °F 102.4 °F 73.4 °F 52% 30.12 in 10.0 mi SSW 5.8 mph - N/A   Clear
2:35 PM 95.0 °F 107.4 °F 75.2 °F 53% 30.11 in 10.0 mi South 8.1 mph - N/A   Clear
2:55 PM 95.0 °F 104.5 °F 73.4 °F 49% 30.11 in 10.0 mi South 6.9 mph - N/A   Clear
3:15 PM 96.8 °F 107.3 °F 73.4 °F 47% 30.10 in 10.0 mi South 8.1 mph - N/A   Scattered Clouds
3:35 PM 96.8 °F 107.3 °F 73.4 °F 47% 30.10 in 10.0 mi South 13.8 mph - N/A   Clear
3:55 PM 96.8 °F 107.3 °F 73.4 °F 47% 30.09 in 10.0 mi SSW 8.1 mph - N/A   Clear
4:15 PM 95.0 °F 104.5 °F 73.4 °F 49% 30.08 in 10.0 mi South 11.5 mph - N/A   Scattered Clouds
4:35 PM 96.8 °F 107.3 °F 73.4 °F 47% 30.08 in 10.0 mi SSW 10.4 mph 17.3 mph N/A   Clear
4:55 PM 95.0 °F 104.5 °F 73.4 °F 49% 30.08 in 10.0 mi SSW 9.2 mph - N/A   Scattered Clouds
5:15 PM 96.8 °F 107.3 °F 73.4 °F 47% 30.08 in 10.0 mi SSW 8.1 mph - N/A   Clear
5:35 PM 95.0 °F 104.5 °F 73.4 °F 49% 30.07 in 10.0 mi SW 9.2 mph - N/A   Clear
5:55 PM 95.0 °F 104.5 °F 73.4 °F 49% 30.07 in 10.0 mi WSW 8.1 mph - N/A   Clear
6:15 PM 95.0 °F 104.5 °F 73.4 °F 49% 30.06 in 10.0 mi South 5.8 mph - N/A   Clear
6:35 PM 95.0 °F 104.5 °F 73.4 °F 49% 30.06 in 10.0 mi SSW 6.9 mph - N/A   Clear
6:55 PM 93.2 °F 102.4 °F 73.4 °F 52% 30.06 in 10.0 mi SSW 4.6 mph - N/A   Clear
7:15 PM 93.2 °F 102.4 °F 73.4 °F 52% 30.07 in 10.0 mi Calm Calm - N/A   Clear
7:35 PM 91.4 °F 102.5 °F 75.2 °F 59% 30.07 in 10.0 mi Calm Calm - N/A   Clear
7:55 PM 91.4 °F 102.5 °F 75.2 °F 59% 30.08 in 10.0 mi Calm Calm - N/A   Clear
8:15 PM 87.8 °F 99.7 °F 77.0 °F 70% 30.08 in 10.0 mi Calm Calm - N/A   Clear
8:35 PM 86.0 °F 99.3 °F 78.8 °F 79% 30.09 in 10.0 mi Calm Calm - N/A   Clear
8:55 PM 84.2 °F 96.1 °F 78.8 °F 84% 30.10 in 10.0 mi Calm Calm - N/A   Clear
9:15 PM 84.2 °F 94.1 °F 77.0 °F 79% 30.11 in 10.0 mi Calm Calm - N/A   Scattered Clouds
9:35 PM 82.4 °F 90.9 °F 77.0 °F 84% 30.12 in 10.0 mi South 6.9 mph - N/A   Mostly Cloudy
9:55 PM 86.0 °F 96.9 °F 77.0 °F 74% 30.12 in 10.0 mi SSE 6.9 mph - N/A   Scattered Clouds
10:15 PM 84.2 °F 94.1 °F 77.0 °F 79% 30.13 in 10.0 mi SSE 5.8 mph - N/A   Clear
10:35 PM 84.2 °F 94.1 °F 77.0 °F 79% 30.13 in 10.0 mi South 5.8 mph - N/A   Clear
10:55 PM 84.2 °F 94.1 °F 77.0 °F 79% 30.14 in 10.0 mi South 6.9 mph - N/A   Clear
11:15 PM 84.2 °F 94.1 °F 77.0 °F 79% 30.13 in 10.0 mi SSE 4.6 mph - N/A   Clear
11:35 PM 82.4 °F 90.9 °F 77.0 °F 84% 30.13 in 10.0 mi South 4.6 mph - N/A   Clear
11:55 PM 82.4 °F 90.9 °F 77.0 °F 84% 30.13 in 10.0 mi South 3.5 mph - N/A   Clear